Regional Weather Roundup
Issued by NWS

Home | Current Version | Previous Version | Text Only | Print | Product List | Glossary On
Versions: 1 2 3 4 5 6 7 8 9 10 11 12 13 14 15 16 17 18 19 20 21 22 23 24 25 26 27 28 29 30 31 32 33 34 35 36 37 38 39 40 41 42 43 44 45 46 47 48 49 50
000
ASUS43 KDTX 231510
RWRMI
MICHIGAN HOURLY REGIONAL WEATHER ROUNDUP
NATIONAL WEATHER SERVICE DETROIT/PONTIAC MI
ISSUED BY NATIONAL WEATHER SERVICE GRAND RAPIDS MI
1100 AM EDT MON JUL 23 2018

NOTE: "FAIR" INDICATES FEW OR NO CLOUDS BELOW 12,000 FEET WITH NO
SIGNIFICANT WEATHER AND/OR OBSTRUCTION TO VISIBILITY.

MIZ047>049-052>055-059>063-066>070-074>076-081>083-231600-
SOUTHEAST LOWER MICHIGAN

CITY           SKY/WX    TMP DP  RH WIND       PRES   REMARKS
ADRIAN         FAIR      72  59  63 CALM      29.91S
ALMA           CLOUDY    67  67  99 E5        29.91S
ANN ARBOR      FAIR      73  60  63 VRB5      29.89F
BAD AXE        CLOUDY    67  64  90 CALM      29.93S
DETROIT CITY   CLOUDY    69  62  78 E3        29.90S
DETROIT        PTSUNNY   74  59  59 CALM      29.90S
FLINT          PTSUNNY   71  62  73 S3        29.91S
GROSSE ILE     CLOUDY    71  62  73 E5        29.89S
HILLSDALE      FAIR      70  59  68 S3        29.90F
HOWELL         CLOUDY    71  62  73 S3        29.91S

CITY           SKY/WX    TMP DP  RH WIND       PRES   REMARKS
JACKSON        FAIR      70  63  78 CALM      29.90S
LANSING        CLOUDY    66  64  93 S3        29.91S
MASON          CLOUDY    66  63  90 CALM      29.91S
MONROE         PTSUNNY   71  61  70 NW6       29.89R
MT. CLEMENS    PTSUNNY   67  67  98 NE5       29.89S
PONTIAC        PTSUNNY   72  61  68 VRB5      29.90R
PORT HURON     CLOUDY    70  63  78 CALM      29.91S
TRI CITIES     PTSUNNY   71  63  75 SE8       29.91F
YPSILANTI      PTSUNNY   74  60  61 CALM      29.90S
$$
MIZ043>046-050>051-056>058-064>065-071>073-077>080-231600-
SOUTHWEST LOWER MICHIGAN

CITY           SKY/WX    TMP DP  RH WIND       PRES   REMARKS
BATTLE CREEK   CLOUDY    69  62  78 S6        29.92R
BENTON HARBOR  CLOUDY    70  64  81 NW5       29.91R
BIG RAPIDS     CLOUDY    68  64  89 NE6       29.91S
COLDWATER      CLOUDY    68  60  74 CALM      29.91S
HOLLAND        CLOUDY    72  64  76 CALM      29.91S
GRAND RAPIDS   CLOUDY    69  64  84 CALM      29.90S
KALAMAZOO      CLOUDY    70  60  70 CALM      29.91S
MARSHALL       CLOUDY    68  65  93 CALM      29.91S
MOUNT PLEASANT CLOUDY    66  66 100 E10       29.91R FOG
MUSKEGON       CLOUDY    71  63  75 N5        29.91S
STURGIS        CLOUDY    69  63  81 SE5       29.91S
$$
MIZ016>042-231600-
NORTHERN LOWER MICHIGAN

CITY           SKY/WX    TMP DP  RH WIND       PRES   REMARKS
ALPENA         CLOUDY    69  68  96 E6        29.95S
BEAVER ISLAND  CLOUDY    71  66  87 E9        29.98R
BELLAIRE       CLOUDY    69  62  79 NE6       29.95R
CADILLAC       CLOUDY    65  64  95 NE9       29.93S FOG
CHARLEVOIX     CLOUDY    70  67  88 NE6       29.98S
GAYLORD        CLOUDY    67  64  90 VRB3      29.97R
HOUGHTON LAKE  CLOUDY    69  60  73 E12       29.94R
MANISTEE       CLOUDY    69  64  84 E7        29.92S
OSCODA         CLOUDY    70  66  87 E5        29.93S
PELLSTON       CLOUDY    70  65  84 E10       29.97R
TRAVERSE CITY  CLOUDY    72  63  73 NE6       29.92R
LUDINGTON      CLOUDY    70  65  83 N6        29.92R
$$
MIZ007>008-015-231600-
EASTERN UPPER MICHIGAN

CITY           SKY/WX    TMP DP  RH WIND       PRES   REMARKS
KINROSS        CLOUDY    70  66  87 E7        29.99R
MACKINAC ISLAN CLOUDY    69  69 100 NE5       29.97S
NEWBERRY       CLOUDY    69  68  97 NE5       29.98S
S. S. MARIE    CLOUDY    71  67  87 SE5       29.98S
$$
MIZ004>006-011>014-085-231600-
CENTRAL UPPER MICHIGAN

CITY           SKY/WX    TMP DP  RH WIND       PRES   REMARKS
MANISTIQUE     CLOUDY    69  67  94 N5        29.98S
ESCANABA       CLOUDY    71  61  70 VRB5      29.98F
MENOMINEE      FAIR      71  61  70 N7        29.98S
SAWYER-GWINN   SUNNY     66  55  68 NE9       30.02S
$$
MIZ001>003-009>011-084-231600-
WESTERN UPPER MICHIGAN

CITY           SKY/WX    TMP DP  RH WIND       PRES   REMARKS
IRON MOUNTAIN  FAIR      72  59  63 VRB6      30.00S
HOUGHTON       FAIR      72  58  61 NW3       30.02F
COPPER HARBOR    N/A     64  57  78 N9        30.02S
IRONWOOD       FAIR      68  58  70 VRB3      30.06S
$$

ABBREVIATIONS USED IN REMARKS
   TC - TEMPERATURE IN CELSIUS
  WCI - WIND CHILL INDEX
   HX - HEAT INDEX
  VSB - VISIBILITY




USA.gov is the U.S. government's official web portal to all federal, state and local government web resources and services.